Starlink 31734

operational
NORAD ID: 59534 Int'l Des: 2024-074 Owner: SPXS Country: US Constellation: starlink
LEOCIRCULAR

关于 Starlink 31734

正在加载描述...

实时位置

正在加载3D地球...

即将过境

高度历史

Altitude vs Time

uPlot chart will show altitude changes over time

两行轨道根数

1 59534U 24074A 25303.52732028 -.00003400 00000-0 -11394-3 0 9995
2 59534 43.0036 347.7177 0001137 252.4702 107.6026 15.27619562 86239
Epoch: Oct 30, 2025 • Age: 27 hours

当前状态

高度 486.9 km
速度 7.63 km/s
星下点 43.14°N, 157.53°E
发射日期 Apr 18, 2024
运行时间 1.5 years
类型 internet

技术详情

分类 Payload
质量 730.00 kg
干质量 700.00 kg
总质量 730.00 kg
长度 0.30 m
直径 4.10 m
跨度 29.00 m
形状 Box + pan
制造商 SPXS
平台类型 Starlink V2M
阶段状态 In Orbit
所有者/国家 SPXS/US

大型星座

Loading constellations...